Location: Slanting_Bridge
(35.6330°N, 80.9830°W)
Time: 15:12:22
(UTC-05:00)

Hamsat - Visible Passes

Search period start: 28 January 2015 00:00
Search period end: 07 February 2015 00:00
Orbit: 590 x 626 km, 97.6° (Epoch: 28 January)

Date Brightness Start Highest point End Pass type
(mag) Time Alt. Az. Time Alt. Az. Time Alt. Az.
28 Jan ? 05:08:13 10° NE 05:11:11 19° E 05:14:16 10° SE visible
28 Jan ? 06:43:34 10° NNW 06:47:10 28° WNW 06:50:41 10° SW visible
29 Jan ? 05:21:23 10° NE 05:24:57 28° E 05:28:35 10° SSE visible
30 Jan ? 05:34:44 10° NNE 05:38:41 41° E 05:42:38 10° S visible
31 Jan ? 05:48:14 10° NNE 05:52:22 62° E 05:56:29 10° S visible
31 Jan ? 18:15:06 10° SW 18:18:12 19° W 18:21:09 10° NW visible
01 Feb ? 06:01:50 10° N 06:06:01 88° WNW 06:10:11 10° SSW visible
01 Feb ? 18:29:54 10° WSW 18:32:00 13° W 18:33:50 10° WNW visible
02 Feb ? 06:15:32 10° N 06:19:39 59° WNW 06:23:44 10° SSW visible
03 Feb ? 04:55:05 10° ENE 04:57:05 14° E 04:59:18 10° ESE visible
03 Feb ? 06:29:20 10° N 06:33:15 39° WNW 06:37:08 10° SW visible
04 Feb ? 05:07:51 10° NE 05:10:52 20° E 05:14:00 10° SE visible
04 Feb ? 06:43:15 10° NNW 06:46:50 27° WNW 06:50:21 10° SW visible
05 Feb ? 05:21:00 10° NE 05:24:36 28° E 05:28:16 10° SSE visible
06 Feb ? 05:34:21 10° NNE 05:38:19 42° E 05:42:18 10° S visible
